When you browse on this site, cookies collect data to enhance your experience and personalize the content and advertising you see.
Visit our Privacy Policy to learn more. By continuing to use the site, you agree to this use of cookies and data.
EN

Hourly Weather Shendzhiy

Today, 19 September, Saturday

Time Temperature Precipitation Wind Pressure Humidity
00:00 +17°C° 0 mm 3 mps 757 mmHg 64%
01:00 +17°C° 0 mm 3 mps 758 mmHg 62%
02:00 +16°C° 0 mm 3 mps 758 mmHg 61%
03:00 +16°C° 0 mm 2 mps 758 mmHg 60%
04:00 +15°C° 0 mm 2 mps 759 mmHg 64%
05:00 +14°C° 0 mm 2 mps 759 mmHg 67%
06:00 +13°C° 0 mm 1 mps 759 mmHg 71%
07:00 +14°C° 0 mm 2 mps 759 mmHg 63%
08:00 +16°C° 0 mm 3 mps 760 mmHg 56%
09:00 +18°C° 0 mm 3 mps 760 mmHg 48%
10:00 +19°C° 0 mm 3 mps 760 mmHg 45%
11:00 +20°C° 0 mm 4 mps 760 mmHg 42%
12:00 +21°C° 0 mm 4 mps 760 mmHg 39%
13:00 +21°C° 0 mm 4 mps 760 mmHg 40%
14:00 +21°C° 0 mm 5 mps 759 mmHg 41%
15:00 +21°C° 0 mm 5 mps 759 mmHg 42%
16:00 +20°C° 0 mm 4 mps 759 mmHg 45%
17:00 +19°C° 0 mm 3 mps 759 mmHg 48%
18:00 +18°C° 0 mm 3 mps 759 mmHg 51%
19:00 +17°C° 0 mm 2 mps 760 mmHg 57%
20:00 +15°C° 0 mm 2 mps 760 mmHg 62%
21:00 +14°C° 0 mm 2 mps 760 mmHg 68%
22:00 +13°C° 0 mm 1 mps 760 mmHg 71%
23:00 +13°C° 0 mm 1 mps 760 mmHg 73%

Tomorrow, 20 September, Sunday

Time Temperature Precipitation Wind Pressure Humidity
00:00 +13°C° 0 mm 1 mps 760 mmHg 76%
01:00 +12°C° 0 mm 1 mps 760 mmHg 77%
02:00 +12°C° 0 mm 1 mps 760 mmHg 78%
03:00 +12°C° 0 mm 1 mps 760 mmHg 79%
04:00 +12°C° 0 mm 1 mps 760 mmHg 80%
05:00 +11°C° 0 mm 1 mps 760 mmHg 81%
06:00 +11°C° 0 mm 1 mps 760 mmHg 82%
07:00 +14°C° 0 mm 1 mps 760 mmHg 72%
08:00 +16°C° 0 mm 1 mps 760 mmHg 61%
09:00 +19°C° 0 mm 1 mps 760 mmHg 51%
10:00 +21°C° 0 mm 1 mps 760 mmHg 46%
11:00 +23°C° 0 mm 1 mps 760 mmHg 41%
12:00 +25°C° 0 mm 1 mps 760 mmHg 36%
13:00 +25°C° 0 mm 2 mps 760 mmHg 35%
14:00 +25°C° 0 mm 2 mps 759 mmHg 33%
15:00 +26°C° 0 mm 2 mps 759 mmHg 31%
16:00 +25°C° 0 mm 2 mps 759 mmHg 35%
17:00 +23°C° 0 mm 2 mps 759 mmHg 38%
18:00 +21°C° 0 mm 2 mps 759 mmHg 41%
19:00 +20°C° 0 mm 2 mps 760 mmHg 42%
20:00 +18°C° 0 mm 3 mps 760 mmHg 43%
21:00 +17°C° 0 mm 3 mps 760 mmHg 44%
22:00 +16°C° 0 mm 3 mps 760 mmHg 43%
23:00 +15°C° 0 mm 2 mps 760 mmHg 42%

Day after tomorrow, 21 September, Monday

Time Temperature Precipitation Wind Pressure Humidity
00:00 +15°C° 0 mm 2 mps 761 mmHg 41%
01:00 +14°C° 0 mm 2 mps 761 mmHg 43%
02:00 +13°C° 0 mm 3 mps 761 mmHg 45%
03:00 +12°C° 0 mm 3 mps 761 mmHg 46%
04:00 +12°C° 0 mm 3 mps 761 mmHg 50%
05:00 +11°C° 0 mm 3 mps 761 mmHg 53%
06:00 +11°C° 0 mm 3 mps 761 mmHg 56%
07:00 +13°C° 0 mm 3 mps 761 mmHg 52%
08:00 +16°C° 0 mm 3 mps 761 mmHg 47%
09:00 +18°C° 0 mm 4 mps 761 mmHg 43%
10:00 +21°C° 0 mm 4 mps 761 mmHg 38%
11:00 +23°C° 0 mm 5 mps 761 mmHg 34%
12:00 +26°C° 0 mm 6 mps 761 mmHg 29%
13:00 +26°C° 0 mm 6 mps 760 mmHg 28%
14:00 +27°C° 0 mm 6 mps 760 mmHg 27%
15:00 +27°C° 0 mm 6 mps 760 mmHg 26%
16:00 +26°C° 0 mm 5 mps 760 mmHg 29%
17:00 +25°C° 0 mm 5 mps 759 mmHg 31%
18:00 +23°C° 0 mm 4 mps 759 mmHg 34%
19:00 +21°C° 0 mm 4 mps 759 mmHg 35%
20:00 +20°C° 0 mm 4 mps 760 mmHg 37%
21:00 +18°C° 0 mm 4 mps 760 mmHg 38%
22:00 +18°C° 0 mm 4 mps 760 mmHg 41%
23:00 +17°C° 0 mm 4 mps 760 mmHg 43%

22 September, Tuesday

Time Temperature Precipitation Wind Pressure Humidity
00:00 +15°C° 0 mm 4 mps 760 mmHg 45%
01:00 +14°C° 0 mm 4 mps 760 mmHg 49%
02:00 +14°C° 0 mm 3 mps 760 mmHg 53%
03:00 +13°C° 0 mm 3 mps 760 mmHg 57%
04:00 +12°C° 0 mm 3 mps 760 mmHg 61%
05:00 +13°C° 0 mm 2 mps 760 mmHg 65%
06:00 +12°C° 0 mm 2 mps 760 mmHg 69%
07:00 +13°C° 0 mm 3 mps 760 mmHg 65%
08:00 +16°C° 0 mm 3 mps 760 mmHg 62%
09:00 +18°C° 0 mm 4 mps 761 mmHg 59%
10:00 +21°C° 0 mm 4 mps 761 mmHg 53%
11:00 +23°C° 0 mm 4 mps 761 mmHg 47%
12:00 +26°C° 0 mm 4 mps 760 mmHg 42%
13:00 +27°C° 0 mm 5 mps 760 mmHg 39%
14:00 +28°C° 0 mm 5 mps 760 mmHg 37%
15:00 +29°C° 0 mm 5 mps 759 mmHg 35%
16:00 +28°C° 0 mm 5 mps 759 mmHg 38%
17:00 +26°C° 0 mm 4 mps 759 mmHg 42%
18:00 +25°C° 0 mm 4 mps 759 mmHg 45%
19:00 +23°C° 0 mm 4 mps 760 mmHg 52%
20:00 +21°C° 0 mm 4 mps 760 mmHg 58%
21:00 +20°C° 0 mm 4 mps 760 mmHg 64%
22:00 +19°C° 0 mm 4 mps 760 mmHg 69%
23:00 +18°C° 0 mm 3 mps 760 mmHg 75%

23 September, Wednesday

Time Temperature Precipitation Wind Pressure Humidity
00:00 +17°C° 0 mm 3 mps 760 mmHg 80%
01:00 +16°C° 0 mm 2 mps 760 mmHg 82%
02:00 +16°C° 0 mm 2 mps 760 mmHg 84%
03:00 +15°C° 0 mm 2 mps 759 mmHg 86%
04:00 +15°C° 0 mm 2 mps 759 mmHg 87%
05:00 +15°C° 0 mm 2 mps 760 mmHg 89%
06:00 +14°C° 0 mm 2 mps 760 mmHg 90%
07:00 +16°C° 0 mm 2 mps 759 mmHg 83%
08:00 +18°C° 0 mm 2 mps 759 mmHg 75%
09:00 +20°C° 0 mm 3 mps 759 mmHg 68%
10:00 +22°C° 0 mm 3 mps 759 mmHg 60%
11:00 +26°C° 0 mm 3 mps 759 mmHg 52%
12:00 +28°C° 0 mm 3 mps 758 mmHg 44%
13:00 +29°C° 0 mm 3 mps 758 mmHg 43%
14:00 +29°C° 0 mm 2 mps 758 mmHg 41%
15:00 +30°C° 0 mm 2 mps 757 mmHg 39%
16:00 +29°C° 0 mm 2 mps 757 mmHg 44%
17:00 +27°C° 0 mm 2 mps 756 mmHg 48%
18:00 +26°C° 0 mm 2 mps 756 mmHg 52%
19:00 +24°C° 0 mm 2 mps 756 mmHg 57%
20:00 +23°C° 0 mm 2 mps 756 mmHg 63%
21:00 +20°C° 0 mm 3 mps 757 mmHg 69%
22:00 +19°C° 0 mm 2 mps 757 mmHg 72%
23:00 +18°C° 0 mm 2 mps 757 mmHg 76%

24 September, Thursday

Time Temperature Precipitation Wind Pressure Humidity
00:00 +19°C° 0 mm 1 mps 757 mmHg 80%
01:00 +18°C° 0 mm 1 mps 757 mmHg 80%
02:00 +18°C° 0 mm 1 mps 757 mmHg 81%
03:00 +18°C° 0 mm 1 mps 757 mmHg 82%
04:00 +18°C° 0 mm 1 mps 757 mmHg 83%
05:00 +18°C° 0 mm 1 mps 757 mmHg 83%
06:00 +18°C° 0 mm 1 mps 757 mmHg 84%
07:00 +20°C° 0 mm 1 mps 757 mmHg 76%
08:00 +22°C° 0 mm 1 mps 757 mmHg 68%
09:00 +25°C° 0 mm 2 mps 757 mmHg 61%
10:00 +26°C° 0 mm 2 mps 757 mmHg 56%
11:00 +28°C° 0 mm 3 mps 757 mmHg 51%
12:00 +30°C° 0 mm 3 mps 756 mmHg 46%
13:00 +31°C° 0 mm 3 mps 756 mmHg 44%
14:00 +31°C° 0 mm 3 mps 756 mmHg 43%
15:00 +31°C° 0 mm 2 mps 756 mmHg 41%
16:00 +30°C° 0 mm 2 mps 756 mmHg 47%
17:00 +28°C° 0 mm 2 mps 756 mmHg 53%
18:00 +27°C° 0 mm 1 mps 755 mmHg 59%
19:00 +25°C° 0 mm 1 mps 755 mmHg 65%
20:00 +24°C° 0 mm 1 mps 756 mmHg 71%
21:00 +22°C° 0 mm 1 mps 756 mmHg 77%
22:00 +22°C° 0 mm 1 mps 756 mmHg 79%
23:00 +21°C° 0 mm 1 mps 755 mmHg 81%
Show more